[[{"header":{"parameterUnit":"m.s-1","parameterCategory":2,"la1":30.2991,"la2":30.254,"lo1":-89.0895,"lo2":-89.0444,"dy":0.0017,"dx":0.0017,"nx":28,"ny":28,"refTime":"2025-11-07T09:00:00:Z","depth":"0","parameterNumber":2,"parameterNumberName":"U-component_of_CURRENTS"},"data":[0,0,0,0,0,0,0,0,0,0,0,0,0,0,0,0,0,0,0,0,0,0,0,0,0,0,0,0,0,0,0,0,0,0,0,0,0,0,0,0,0,0,0,0,0,0,0,0,0,0,0,0,0,0,0,0,0,0,0.4117,0.4117,0,0.4082,0.4082,0.4082,0.4046,0.4046,0.4045,0.4044,0.3981,0.398,0.3979,0,0,0,0,0,0,0,0,0,0,0,0,0,0.4138,0.4138,0.4117,0.4117,0.4116,0.4082,0.4082,0.4082,0.4046,0.4046,0.4045,0.4044,0.3982,0.398,0.3979,0,0,0,0,0,0,0,0,0,0,0,0,0,0.412,0.4138,0.4117,0.4093,0.4091,0.4082,0.4082,0.4082,0.4047,0.4046,0.4045,0.4044,0.3982,0.3981,0.3979,0.3988,0,0,0.3974,0.3973,0,0,0,0,0,0,0,0,0.4121,0.412,0.4097,0.4095,0.4092,0.4066,0.4066,0.4048,0.4047,0.4065,0.4044,0.4043,0.4007,0.4003,0.4002,0.3985,0.3983,0.3974,0.3973,0.3972,0.3972,0,0,0,0,0,0,0,0.4123,0.4121,0.4105,0.4097,0.4093,0.4078,0.4075,0.4063,0.4043,0.4064,0.406,0.4054,0.4005,0.4003,0.4,0.3982,0.3974,0.3973,0.3972,0.3971,0.4001,0.4002,0,0,0,0,0,0,0.4125,0.4122,0.4106,0.4104,0.4102,0.4079,0.4075,0.4077,0.4043,0.4037,0.4055,0.4052,0.4006,0.4002,0.3997,0.4051,0.3972,0.3971,0.397,0.3999,0.4001,0.4003,0,0,0,0,0,0,0.4126,0.4125,0.4108,0.411,0.4107,0.4079,0.4081,0.4077,0.4078,0.4037,0.403,0.4061,0.4006,0.3999,0.3997,0.4046,0.397,0.3969,0.3997,0.4,0.4002,0.4129,0,0,0,0,0,0,0.4127,0.4125,0.4134,0.4111,0.4107,0.4113,0.4082,0.4077,0.4074,0.4071,0.404,0.4033,0.4004,0.4,0.3995,0.4042,0.3967,0.3995,0.3998,0.4001,0.4123,0.4136,0.4147,0,0,0,0,0,0.4128,0.4134,0.4135,0.4133,0.4118,0.4114,0.4111,0.4089,0.4076,0.4085,0.4064,0.4034,0.4018,0.3999,0.3994,0.4042,0.3993,0.3997,0.4001,0.4117,0.4133,0.4147,0,0,0,0,0,0,0.4131,0.4131,0.4131,0.4133,0.4132,0.4107,0.4111,0.4099,0.4091,0.4087,0.4049,0.4042,0.4062,0.4031,0.4011,0.406,0.4003,0.4007,0.4094,0.4108,0.412,0.412,0.3966,0,0,0,0,0,0.4142,0.4153,0.4148,0.4149,0.4156,0.414,0.4137,0.4124,0.411,0.4105,0.4087,0.4072,0.4075,0.4073,0.4062,0.4084,0.4078,0.4113,0.4125,0.4135,0.4132,0.4179,0.4195,0.4016,0.4016,0.4016,0,0,0.414,0.4141,0.4146,0.4152,0.4151,0.4164,0.4137,0.4138,0.4153,0.41,0.4119,0.411,0.4089,0.4118,0.4125,0.4098,0.4188,0.4141,0.415,0.414,0.4185,0.4202,0.4218,0.4019,0.4018,0.4018,0,0,0.4136,0.4152,0.4164,0.4175,0.418,0.4181,0.4187,0.4182,0.419,0.4205,0.4183,0.4205,0.4192,0.4203,0.4203,0.4275,0.425,0.4273,0.4338,0.4385,0.44,0.4413,0.4452,0.4468,0.4281,0.4282,0.4282,0,0.414,0.4146,0.4164,0.418,0.4189,0.4195,0.4209,0.4228,0.4221,0.4238,0.4222,0.4246,0.4238,0.4286,0.4319,0.4306,0.4318,0.4288,0.4403,0.4415,0.4427,0.4463,0.4478,0.4288,0.4288,0.4287,0.4286,0,0.4139,0.4157,0.4166,0.4198,0.4218,0.4228,0.426,0.4291,0.4304,0.4314,0.4363,0.4365,0.4373,0.4397,0.4381,0.4465,0.4444,0.4415,0.437,0.4453,0.4485,0.4499,0.4298,0.4295,0.4293,0.4292,0,0,0.4111,0.4159,0.4162,0.418,0.4228,0.4235,0.4299,0.4346,0.4384,0.4411,0.446,0.4501,0.45,0.45,0.45,0.4555,0.4669,0.4527,0.4527,0.4572,0.4774,0.464,0.4642,0.4663,0.4666,0.4668,0.4773,0,0.4104,0.4131,0.4164,0.4196,0.4216,0.4269,0.4323,0.4373,0.4423,0.4479,0.4521,0.4562,0.4541,0.4563,0.4615,0.4655,0.4708,0.4643,0.4678,0.4679,0.4556,0.4654,0.4404,0.4465,0.4786,0.4788,0.479,0,0.4082,0.4109,0.4139,0.4198,0.4215,0.4239,0.433,0.438,0.4482,0.4527,0.4587,0.4613,0.4705,0.467,0.4782,0.4741,0.4763,0.4793,0.4796,0.4629,0.457,0.4427,0.4478,0.4392,0.4811,0.4809,0.4808,0,0.4031,0.4084,0.4106,0.4126,0.4204,0.4234,0.4279,0.4381,0.445,0.456,0.4624,0.4702,0.4761,0.4813,0.4866,0.4838,0.498,0.4942,0.4841,0.4832,0.46,0.4565,0.4567,0.5013,0.5013,0.5013,0.5012,0,0.4001,0.4016,0.4078,0.4091,0.4128,0.4192,0.426,0.433,0.4453,0.4536,0.463,0.4711,0.4803,0.4886,0.4909,0.492,0.5011,0.4867,0.4855,0.4637,0.4606,0.45,0.4458,0.5017,0.5016,0.5015,0.5014,0,0.3943,0.3983,0.4013,0.4085,0.4102,0.413,0.4243,0.4299,0.4427,0.4546,0.4592,0.4755,0.4853,0.4923,0.5025,0.4966,0.4848,0.4969,0.4703,0.4655,0.4424,0.4397,0.422,0.4108,0.4869,0.4866,0.4864,0,0.3918,0.3926,0.3993,0.4006,0.4034,0.4089,0.413,0.4264,0.4338,0.4561,0.4609,0.4762,0.4818,0.4914,0.4847,0.4843,0.4764,0.4616,0.45,0.4389,0.4353,0.4224,0.4135,0.4268,0.4261,0.4255,0.425,0,0.388,0.3904,0.3931,0.3956,0.3983,0.4029,0.4096,0.4156,0.4324,0.4431,0.456,0.4628,0.469,0.4564,0.4553,0.452,0.4367,0.4495,0.4453,0.3938,0.3723,0.3614,0.4239,0.42,0.4205,0.4209,0.4211,0.4213,0.3846,0.3852,0.3882,0.3887,0.3917,0.3932,0.3922,0.4019,0.4109,0.4186,0.4366,0.4342,0.4319,0.424,0.4198,0.3956,0.3999,0.3818,0.382,0.3721,0.3511,0.4017,0.3909,0.3912,0.3915,0.3917,0.3919,0,0.3779,0.3786,0.3804,0.3796,0.3762,0.3818,0.3861,0.3818,0.3836,0.3924,0.3966,0.3848,0.3721,0.3691,0.3483,0.3316,0.3183,0.3245,0.3028,0.2996,0.3511,0.3383,0.3063,0.3063,0.3063,0.3063,0.3063,0.3063,0.3746,0.3718,0.3714,0.3621,0.3605,0.3506,0.3485,0.3456,0.347,0.335,0.3235,0.3224,0.3282,0.3199,0.2991,0.2904,0.2738,0.2547,0.2652,0.3044,0.3098,0.315,0.3023,0.2633,0.2632,0.1977,0.1972,0.1969]},{"header":{"parameterUnit":"m.s-1","parameterCategory":2,"la1":30.2991,"la2":30.254,"lo1":-89.0895,"lo2":-89.0444,"dy":0.0017,"dx":0.0017,"nx":28,"ny":28,"refTime":"2025-11-07T09:00:00:Z","depth":"0","parameterNumber":3,"parameterNumberName":"V-component_of_CURRENTS"},"data":[0,0,0,0,0,0,0,0,0,0,0,0,0,0,0,0,0,0,0,0,0,0,0,0,0,0,0,0,0,0,0,0,0,0,0,0,0,0,0,0,0,0,0,0,0,0,0,0,0,0,0,0,0,0,0,0,0,0,0.0156,0.0155,0,0.0134,0.0133,0.0133,0.0109,0.0109,0.0109,0.0108,0.0065,0.0064,0.0063,0,0,0,0,0,0,0,0,0,0,0,0,0,0.0152,0.0153,0.0156,0.0155,0.0155,0.0134,0.0133,0.0133,0.0109,0.0109,0.0108,0.0108,0.0065,0.0064,0.0063,0,0,0,0,0,0,0,0,0,0,0,0,0,0.0144,0.0153,0.0156,0.0142,0.014,0.0134,0.0133,0.0133,0.0109,0.0109,0.0108,0.0108,0.0066,0.0064,0.0063,0.0062,0,0,0.0059,0.0058,0,0,0,0,0,0,0,0,0.0144,0.0144,0.0144,0.0143,0.0141,0.0125,0.0116,0.0108,0.0109,0.012,0.0108,0.0108,0.0084,0.0081,0.0077,0.006,0.0058,0.0059,0.0058,0.0057,0.0057,0,0,0,0,0,0,0,0.0145,0.0144,0.0146,0.0144,0.0142,0.0128,0.0126,0.0114,0.0103,0.0119,0.0117,0.0117,0.0083,0.0078,0.0075,0.0057,0.0059,0.0057,0.0057,0.0056,0.0035,0.0036,0,0,0,0,0,0,0.0151,0.0145,0.0147,0.0145,0.0143,0.0128,0.0127,0.0129,0.0104,0.01,0.0117,0.0116,0.0081,0.0077,0.0074,0.0084,0.0057,0.0056,0.0055,0.0035,0.0035,0.0036,0,0,0,0,0,0,0.0151,0.0152,0.0148,0.0145,0.0144,0.0129,0.0132,0.0129,0.0127,0.0103,0.0098,0.0118,0.008,0.0076,0.0069,0.0081,0.0055,0.0054,0.0035,0.0035,0.0036,0.0096,0,0,0,0,0,0,0.0151,0.0152,0.0155,0.0146,0.0144,0.0153,0.0133,0.0129,0.0127,0.0125,0.0102,0.0098,0.0079,0.0071,0.0068,0.0079,0.0053,0.0034,0.0035,0.0035,0.0093,0.0098,0.0102,0,0,0,0,0,0.0151,0.0162,0.0155,0.0155,0.0149,0.0154,0.0152,0.0139,0.0128,0.0134,0.0116,0.0098,0.0072,0.0071,0.0066,0.0077,0.0034,0.0035,0.0035,0.0091,0.0097,0.0102,0,0,0,0,0,0,0.0161,0.016,0.0153,0.0162,0.0161,0.015,0.0153,0.0144,0.0134,0.013,0.0105,0.0099,0.0095,0.0078,0.0077,0.0071,0.0049,0.0049,0.0093,0.0098,0.0102,0.0129,0.0052,0,0,0,0,0,0.0165,0.0174,0.0168,0.0176,0.0177,0.0165,0.0164,0.0157,0.0147,0.0143,0.0126,0.0107,0.0094,0.009,0.0072,0.0075,0.0075,0.0077,0.0082,0.0086,0.0104,0.0115,0.0122,0.0038,0.0038,0.0038,0,0,0.0169,0.0172,0.0175,0.0179,0.0175,0.0191,0.0164,0.0168,0.0183,0.014,0.015,0.012,0.0096,0.0095,0.0092,0.0085,0.0109,0.0087,0.009,0.0107,0.0116,0.0125,0.0132,0.0038,0.0038,0.0038,0,0,0.0197,0.0187,0.0209,0.0213,0.0215,0.0208,0.0213,0.0205,0.0203,0.0205,0.0176,0.0161,0.014,0.0131,0.0122,0.0142,0.0127,0.0127,0.0179,0.0189,0.0197,0.0203,0.0215,0.0222,0.0135,0.0135,0.0135,0,0.0204,0.0232,0.0215,0.0241,0.0254,0.0222,0.0253,0.0246,0.0237,0.0247,0.0216,0.0195,0.0162,0.0179,0.0175,0.0154,0.0157,0.0163,0.0197,0.0204,0.021,0.022,0.0227,0.0138,0.0138,0.0138,0.0137,0,0.0255,0.0275,0.0288,0.0312,0.032,0.0339,0.0332,0.0333,0.0317,0.0314,0.0318,0.0273,0.0265,0.0244,0.0211,0.0237,0.0225,0.0199,0.019,0.0223,0.023,0.0237,0.0142,0.0141,0.014,0.014,0,0,0.0282,0.0319,0.0324,0.0355,0.0362,0.038,0.0398,0.0418,0.0446,0.0415,0.0459,0.0404,0.0375,0.0362,0.0319,0.032,0.0345,0.0279,0.0278,0.0301,0.0374,0.0339,0.0342,0.0326,0.0327,0.0329,0.0364,0,0.0331,0.04,0.0402,0.0463,0.0499,0.0482,0.0509,0.0519,0.0514,0.0542,0.0502,0.0515,0.0423,0.0421,0.0403,0.0366,0.0365,0.0338,0.033,0.033,0.0303,0.035,0.0349,0.0379,0.037,0.0371,0.0372,0,0.0388,0.0428,0.0499,0.0556,0.057,0.0595,0.0639,0.0662,0.0679,0.0681,0.0676,0.0643,0.0635,0.0553,0.0512,0.05,0.0441,0.0405,0.0405,0.036,0.0307,0.0343,0.0391,0.0264,0.0382,0.0381,0.038,0,0.0433,0.05,0.0562,0.0581,0.063,0.0659,0.0682,0.0705,0.0753,0.0779,0.0822,0.0783,0.0796,0.0714,0.0607,0.0568,0.0575,0.0512,0.0429,0.0426,0.042,0.0413,0.0356,0.0492,0.0492,0.0492,0.0492,0,0.0492,0.0542,0.0589,0.0624,0.0706,0.0716,0.0802,0.0815,0.0871,0.0966,0.09,0.0975,0.0839,0.0812,0.0682,0.0588,0.063,0.046,0.0441,0.0438,0.0433,0.0315,0.0225,0.0493,0.0493,0.0493,0.0493,0,0.0533,0.0561,0.0642,0.0705,0.0731,0.079,0.0889,0.0956,0.099,0.1116,0.1138,0.1145,0.1119,0.0972,0.087,0.0711,0.0529,0.0559,0.0563,0.0542,0.0313,0.0226,0.0147,0.0086,0.0474,0.0474,0.0473,0,0.0564,0.0608,0.0702,0.0762,0.0794,0.0885,0.0955,0.101,0.1098,0.1239,0.1318,0.1333,0.1379,0.1202,0.0937,0.0723,0.0563,0.0547,0.0455,0.0321,0.021,0.0144,0.0094,0.0474,0.0473,0.0473,0.0472,0,0.0627,0.0655,0.072,0.0838,0.0924,0.1036,0.1143,0.1234,0.1333,0.1462,0.1633,0.169,0.1523,0.1323,0.0991,0.0815,0.0441,0.0531,0.0403,0.0218,0.0137,0.0063,0.0426,0.0469,0.047,0.047,0.047,0.047,0.0675,0.0732,0.0816,0.093,0.1036,0.1177,0.1285,0.1432,0.1614,0.1824,0.1865,0.1994,0.1653,0.1218,0.0948,0.0442,0.0436,0.0279,0.0192,0.0146,0.0058,0.0409,0.0414,0.0414,0.0414,0.0414,0.0414,0,0.0738,0.0802,0.0909,0.1047,0.1172,0.1216,0.1407,0.1541,0.1783,0.1993,0.2159,0.2074,0.1657,0.1188,0.0498,0.0162,0.0036,-0.0012,-0.01,-0.0131,0.0204,0.0174,0.0114,0.0115,0.0115,0.0115,0.0115,0.0115,0.0778,0.0877,0.0928,0.1134,0.1238,0.1413,0.153,0.1751,0.1935,0.2206,0.23,0.2336,0.1978,0.0798,0.0036,-0.0139,-0.036,-0.0412,-0.0511,-0.029,-0.0269,-0.0249,-0.0298,-0.0455,-0.0456,-0.0797,-0.0801,-0.0803]}],[{"header":{"parameterUnit":"m.s-1","parameterCategory":2,"la1":30.2991,"la2":30.254,"lo1":-89.0895,"lo2":-89.0444,"dy":0.0017,"dx":0.0017,"nx":28,"ny":28,"refTime":"2025-11-07T09:00:00:Z","depth":"2","parameterNumber":2,"parameterNumberName":"U-component_of_CURRENTS"},"data":[0,0,0,0,0,0,0,0,0,0,0,0,0,0,0,0,0,0,0,0,0,0,0,0,0,0,0,0,0,0,0,0,0,0,0,0,0,0,0,0,0,0,0,0,0,0,0,0,0,0,0,0,0,0,0,0,0,0,0.2736,0.2736,0,0.2783,0.2783,0.2783,0.2786,0.2785,0.2785,0.2785,0.2763,0.2762,0.2762,0,0,0,0,0,0,0,0,0,0,0,0,0,0.2751,0.2749,0.2735,0.2736,0.2737,0.2783,0.2783,0.2783,0.2786,0.2785,0.2785,0.2785,0.2763,0.2762,0.2762,0,0,0,0,0,0,0,0,0,0,0,0,0,0.2763,0.2749,0.2735,0.2745,0.2747,0.2783,0.2783,0.2784,0.2786,0.2785,0.2785,0.2784,0.2763,0.2762,0.2762,0.277,0,0,0.2761,0.2761,0,0,0,0,0,0,0,0,0.2762,0.2762,0.2743,0.2745,0.2746,0.278,0.2781,0.2776,0.2786,0.2769,0.2785,0.2784,0.2764,0.2763,0.2771,0.2769,0.2768,0.2761,0.2761,0.276,0.276,0,0,0,0,0,0,0,0.2761,0.2761,0.2752,0.2744,0.2746,0.2783,0.2783,0.278,0.2766,0.277,0.2771,0.278,0.2764,0.2772,0.2771,0.2768,0.2761,0.276,0.276,0.276,0.2832,0.2834,0,0,0,0,0,0,0.2755,0.2759,0.2751,0.2754,0.2756,0.2783,0.2783,0.2768,0.2767,0.2768,0.278,0.278,0.2773,0.2771,0.277,0.2812,0.276,0.276,0.276,0.283,0.2832,0.2835,0,0,0,0,0,0,0.2754,0.2752,0.2749,0.2761,0.2763,0.2782,0.2766,0.2769,0.2791,0.2776,0.2775,0.28,0.2772,0.277,0.2782,0.2809,0.276,0.276,0.2827,0.283,0.2833,0.2875,0,0,0,0,0,0,0.2754,0.2751,0.2744,0.276,0.2762,0.2763,0.2767,0.277,0.2797,0.2797,0.2793,0.2789,0.2772,0.2783,0.2782,0.2808,0.2759,0.2824,0.2829,0.2832,0.2871,0.2879,0.2886,0,0,0,0,0,0.2754,0.2745,0.2743,0.2743,0.2749,0.2763,0.2768,0.278,0.2799,0.28,0.2812,0.279,0.2808,0.2784,0.2782,0.2809,0.2822,0.2827,0.2832,0.2867,0.2877,0.2886,0,0,0,0,0,0,0.2741,0.2745,0.2743,0.2732,0.2744,0.2764,0.278,0.2794,0.2808,0.282,0.2807,0.2804,0.283,0.282,0.2794,0.2847,0.2817,0.2821,0.2844,0.2853,0.2861,0.2884,0.2759,0,0,0,0,0,0.2736,0.2738,0.274,0.2738,0.2745,0.2769,0.2783,0.2794,0.281,0.2818,0.2818,0.2832,0.2849,0.2849,0.2857,0.2876,0.2889,0.2899,0.2907,0.2913,0.2935,0.2976,0.2989,0.285,0.285,0.285,0,0,0.2741,0.2739,0.2745,0.2738,0.2756,0.2775,0.2775,0.2804,0.2832,0.2813,0.285,0.2857,0.2863,0.2889,0.29,0.288,0.296,0.2919,0.2924,0.2943,0.2983,0.2996,0.3008,0.2854,0.2853,0.2853,0,0,0.2747,0.2741,0.2744,0.2763,0.2786,0.2796,0.2808,0.2833,0.2852,0.2886,0.2892,0.2919,0.2933,0.2946,0.2955,0.3015,0.3003,0.3018,0.3066,0.3106,0.3117,0.3128,0.3159,0.3172,0.3016,0.3016,0.3016,0,0.2745,0.2744,0.275,0.2766,0.2786,0.2808,0.2825,0.2856,0.2886,0.2908,0.2904,0.2969,0.2968,0.3015,0.3041,0.3031,0.305,0.3022,0.3115,0.3125,0.3135,0.3164,0.3178,0.3018,0.3018,0.3018,0.3018,0,0.2763,0.2769,0.2781,0.2801,0.2819,0.2845,0.2879,0.2911,0.2941,0.2969,0.3026,0.3038,0.3073,0.3084,0.3082,0.3154,0.3144,0.312,0.3085,0.3151,0.3178,0.3191,0.3022,0.3021,0.302,0.302,0,0,0.2727,0.2776,0.278,0.2801,0.2842,0.286,0.2914,0.2952,0.3003,0.3042,0.31,0.3148,0.3162,0.3177,0.3178,0.3221,0.3304,0.3208,0.3208,0.3229,0.3395,0.3296,0.3301,0.3292,0.3295,0.3297,0.3384,0,0.2729,0.2751,0.278,0.2827,0.2841,0.2893,0.2937,0.2991,0.3039,0.3103,0.3148,0.3204,0.3194,0.322,0.3263,0.3298,0.3342,0.3283,0.3338,0.334,0.3236,0.3314,0.3034,0.308,0.3397,0.3399,0.34,0,0.2726,0.274,0.2766,0.2831,0.2845,0.2882,0.2959,0.3013,0.311,0.3159,0.3227,0.3257,0.3338,0.3318,0.3415,0.3377,0.3402,0.3425,0.3427,0.3334,0.3266,0.3068,0.3091,0.3422,0.342,0.3419,0.3417,0,0.2682,0.2734,0.2749,0.2778,0.2851,0.2885,0.2933,0.3022,0.3079,0.3206,0.3262,0.3341,0.3401,0.3447,0.3491,0.3464,0.3595,0.3548,0.3485,0.3477,0.325,0.3217,0.3629,0.3629,0.3629,0.3629,0.3628,0,0.2664,0.2685,0.2737,0.2758,0.2795,0.2867,0.2938,0.3009,0.3118,0.3194,0.3289,0.3352,0.3443,0.3509,0.353,0.3552,0.3621,0.3521,0.3503,0.3256,0.3224,0.3526,0.3513,0.3632,0.3631,0.3631,0.363,0,0.2617,0.2653,0.2682,0.2751,0.2775,0.2812,0.2927,0.2981,0.3109,0.3214,0.3258,0.339,0.3481,0.3546,0.3638,0.3598,0.3628,0.3616,0.332,0.3265,0.3474,0.3462,0.3552,0.355,0.3548,0.3546,0.3544,0,0.2584,0.2596,0.2659,0.2678,0.2712,0.2784,0.2824,0.2955,0.3012,0.3218,0.3244,0.3389,0.3438,0.3536,0.3512,0.3528,0.361,0.3269,0.3162,0.3498,0.3472,0.3463,0.3455,0.288,0.2873,0.2868,0.2863,0,0.2532,0.2564,0.2589,0.2618,0.2658,0.2704,0.2775,0.2812,0.2977,0.3049,0.3144,0.3208,0.333,0.3211,0.3256,0.322,0.3238,0.3155,0.3598,0.2938,0.2869,0.2842,0.2854,0.2814,0.2819,0.2822,0.2825,0.2827,0.2489,0.2487,0.2525,0.2541,0.2589,0.2599,0.2584,0.2661,0.2706,0.2784,0.2944,0.2952,0.3008,0.2913,0.2827,0.2764,0.2988,0.2842,0.2857,0.2878,0.278,0.271,0.2607,0.2611,0.2614,0.2617,0.2619,0,0.2414,0.2422,0.2442,0.2432,0.2425,0.2505,0.252,0.2469,0.2442,0.256,0.2608,0.2429,0.2366,0.2426,0.2252,0.2247,0.2203,0.2148,0.2069,0.2121,0.2167,0.2029,0.1659,0.1656,0.1653,0.165,0,0,0.2384,0.2352,0.2344,0.2268,0.2277,0.221,0.2195,0.2129,0.2145,0.2099,0.2086,0.2288,0.2367,0.1996,0.1942,0.1769,0.1926,0.1692,0.2468,0.2428,0.247,0.258,0.2429,0,0,0,0,0]},{"header":{"parameterUnit":"m.s-1","parameterCategory":2,"la1":30.2991,"la2":30.254,"lo1":-89.0895,"lo2":-89.0444,"dy":0.0017,"dx":0.0017,"nx":28,"ny":28,"refTime":"2025-11-07T09:00:00:Z","depth":"2","parameterNumber":3,"parameterNumberName":"V-component_of_CURRENTS"},"data":[0,0,0,0,0,0,0,0,0,0,0,0,0,0,0,0,0,0,0,0,0,0,0,0,0,0,0,0,0,0,0,0,0,0,0,0,0,0,0,0,0,0,0,0,0,0,0,0,0,0,0,0,0,0,0,0,0,0,0.0225,0.0225,0,0.0201,0.0201,0.0201,0.0179,0.0179,0.0179,0.0178,0.0146,0.0146,0.0145,0,0,0,0,0,0,0,0,0,0,0,0,0,0.0211,0.0211,0.0225,0.0225,0.0225,0.0201,0.0201,0.0201,0.0179,0.0179,0.0179,0.0178,0.0146,0.0146,0.0145,0,0,0,0,0,0,0,0,0,0,0,0,0,0.0205,0.0212,0.0225,0.0211,0.021,0.0201,0.0201,0.02,0.0179,0.0179,0.0179,0.0178,0.0147,0.0146,0.0145,0.0147,0,0,0.0142,0.0142,0,0,0,0,0,0,0,0,0.0205,0.0206,0.0214,0.0212,0.0211,0.0193,0.0184,0.0182,0.0179,0.0191,0.0178,0.0178,0.0161,0.0159,0.0156,0.0145,0.0144,0.0142,0.0141,0.0141,0.0141,0,0,0,0,0,0,0,0.0206,0.0206,0.0216,0.0213,0.0211,0.0191,0.0191,0.0183,0.0179,0.019,0.0188,0.0186,0.016,0.0157,0.0155,0.0143,0.0142,0.0141,0.014,0.014,0.0125,0.0125,0,0,0,0,0,0,0.0212,0.0207,0.0217,0.0215,0.0207,0.0192,0.0191,0.0199,0.0179,0.0175,0.0186,0.0185,0.0158,0.0156,0.0153,0.0165,0.0141,0.014,0.014,0.0125,0.0125,0.0125,0,0,0,0,0,0,0.0212,0.0213,0.0218,0.021,0.0209,0.0193,0.0202,0.0199,0.0197,0.0176,0.0172,0.0187,0.0158,0.0155,0.0149,0.0163,0.014,0.0139,0.0124,0.0125,0.0125,0.0182,0,0,0,0,0,0,0.0211,0.0214,0.0222,0.0211,0.0209,0.0222,0.0202,0.0198,0.0195,0.0194,0.0176,0.0172,0.0157,0.0151,0.0148,0.0161,0.0138,0.0124,0.0125,0.0125,0.0179,0.0184,0.0187,0,0,0,0,0,0.0211,0.0228,0.0223,0.0224,0.0222,0.0223,0.0221,0.0208,0.0196,0.0203,0.0185,0.0173,0.015,0.015,0.0147,0.0161,0.0124,0.0125,0.0125,0.0178,0.0183,0.0187,0,0,0,0,0,0,0.0227,0.0227,0.0221,0.0238,0.0233,0.022,0.0222,0.0212,0.0204,0.0198,0.0177,0.0173,0.0171,0.0156,0.0157,0.0155,0.0134,0.0134,0.0175,0.018,0.0184,0.0199,0.0137,0,0,0,0,0,0.0234,0.0246,0.0241,0.0252,0.0252,0.0237,0.0235,0.0226,0.0216,0.0211,0.0197,0.018,0.017,0.0168,0.0154,0.0158,0.0138,0.0162,0.0166,0.017,0.0178,0.0158,0.0161,0.0126,0.0126,0.0126,0,0,0.0239,0.0243,0.0247,0.0255,0.0249,0.0261,0.0235,0.0236,0.0248,0.021,0.0217,0.0193,0.0172,0.0174,0.0172,0.0165,0.0167,0.017,0.0174,0.018,0.0159,0.0162,0.0165,0.0126,0.0126,0.0126,0,0,0.0262,0.0262,0.0281,0.0285,0.0284,0.0277,0.028,0.027,0.0267,0.0268,0.0242,0.0227,0.0214,0.0203,0.0196,0.0213,0.0185,0.0206,0.0244,0.0225,0.0228,0.023,0.0205,0.0205,0.0212,0.0212,0.0213,0,0.0269,0.0298,0.0286,0.0308,0.0319,0.0289,0.0315,0.0308,0.0296,0.0301,0.0278,0.0254,0.0231,0.0239,0.0239,0.0225,0.0205,0.0232,0.0231,0.0233,0.0235,0.0208,0.0207,0.0215,0.0215,0.0215,0.0214,0,0.031,0.0332,0.0343,0.0365,0.0373,0.0389,0.0382,0.0383,0.0368,0.036,0.0357,0.0319,0.0307,0.0293,0.0272,0.0275,0.0254,0.0236,0.0224,0.0242,0.0212,0.021,0.0219,0.0218,0.0217,0.0217,0,0,0.0333,0.0368,0.0373,0.04,0.0409,0.0424,0.0439,0.0454,0.0473,0.044,0.0464,0.0424,0.0393,0.0382,0.0347,0.0327,0.0311,0.029,0.0287,0.0272,0.0263,0.0236,0.023,0.0294,0.0294,0.0294,0.0237,0,0.0372,0.0433,0.0438,0.0491,0.0522,0.0511,0.0536,0.0539,0.0531,0.0542,0.0496,0.0496,0.0431,0.0426,0.0393,0.0337,0.0309,0.0328,0.0241,0.0238,0.0218,0.0229,0.0244,0.0194,0.0235,0.0235,0.0234,0,0.0418,0.0455,0.0518,0.0571,0.0584,0.0607,0.0647,0.0668,0.0666,0.0661,0.0638,0.0595,0.056,0.0501,0.0408,0.0422,0.0347,0.0293,0.029,0.0246,0.0208,0.0182,0.0188,0.023,0.0231,0.0231,0.0231,0,0.0456,0.0514,0.0571,0.0589,0.0636,0.0662,0.0688,0.0702,0.0743,0.0736,0.0758,0.0689,0.0675,0.0569,0.044,0.0426,0.0335,0.0304,0.0206,0.0202,0.019,0.0185,0.0236,0.0236,0.0236,0.0236,0.0236,0,0.0506,0.0551,0.0593,0.0627,0.07,0.0714,0.0791,0.08,0.0839,0.0906,0.0823,0.0849,0.0691,0.0613,0.0478,0.0338,0.036,0.0216,0.0189,0.0208,0.0206,0.0217,0.0216,0.0234,0.0234,0.0235,0.0235,0,0.0541,0.0567,0.064,0.07,0.0722,0.0777,0.0871,0.0931,0.0948,0.1033,0.1037,0.0977,0.0874,0.0703,0.0539,0.0405,0.0263,0.0205,0.0233,0.021,0.0132,0.0134,0.0093,0.0092,0.0091,0.009,0.0089,0,0.0569,0.0607,0.0695,0.0748,0.0778,0.0862,0.093,0.098,0.1057,0.1119,0.1169,0.1089,0.1049,0.0785,0.0536,0.0296,0.0261,0.0143,0.0115,0.0141,0.0119,0.0123,0.0126,0.0116,0.0116,0.0115,0.0115,0,0.0619,0.0646,0.0708,0.0814,0.0893,0.0998,0.1098,0.1174,0.1252,0.131,0.1367,0.1336,0.1096,0.0851,0.0515,0.0346,0.0179,0.0126,0.0156,0.015,0.0157,0.0137,0.0141,0.0111,0.0112,0.0112,0.0112,0.0112,0.0657,0.0707,0.0786,0.0889,0.0988,0.1118,0.1211,0.1321,0.1439,0.1533,0.1506,0.146,0.119,0.0755,0.0466,0.0155,0.0172,0.0051,0.0054,0.0058,0.0071,0.0076,0.0016,0.0016,0.0016,0.0016,0.0015,0,0.0703,0.076,0.0857,0.0981,0.1096,0.1145,0.1312,0.1403,0.1538,0.1612,0.1643,0.1375,0.1105,0.079,0.0339,0.0071,0.0049,-0.003,0.0009,0.0015,0.002,0.0032,-0.0034,-0.0034,-0.0035,-0.0036,0,0,0.0728,0.0818,0.0866,0.1043,0.1137,0.1293,0.1391,0.1514,0.1598,0.1653,0.1626,0.1574,0.1199,0.0862,0.0497,0.0236,0.0183,0.0173,0.0241,0.0337,0.0345,0.0093,0.0122,0,0,0,0,0]}],[{"header":{"parameterUnit":"m.s-1","parameterCategory":2,"la1":30.2991,"la2":30.254,"lo1":-89.0895,"lo2":-89.0444,"dy":0.0017,"dx":0.0017,"nx":28,"ny":28,"refTime":"2025-11-07T09:00:00:Z","depth":"4","parameterNumber":2,"parameterNumberName":"U-component_of_CURRENTS"},"data":[0,0,0,0,0,0,0,0,0,0,0,0,0,0,0,0,0,0,0,0,0,0,0,0,0,0,0,0,0,0,0,0,0,0,0,0,0,0,0,0,0,0,0,0,0,0,0,0,0,0,0,0,0,0,0,0,0,0,0.16,0.1601,0,0.1653,0.1653,0.1654,0.1699,0.1699,0.17,0.1701,0.1771,0.1772,0.1773,0,0,0,0,0,0,0,0,0,0,0,0,0,0.1538,0.1538,0.16,0.1601,0.1602,0.1653,0.1653,0.1654,0.1699,0.1699,0.17,0.1701,0.177,0.1772,0.1773,0,0,0,0,0,0,0,0,0,0,0,0,0,0.1574,0.1539,0.16,0.1631,0.1635,0.1653,0.1653,0.1654,0.1698,0.1699,0.17,0.1701,0.177,0.1772,0.1774,0.1767,0,0,0.1779,0.178,0,0,0,0,0,0,0,0,0.1571,0.1576,0.1626,0.1629,0.1633,0.1671,0.1657,0.1693,0.1698,0.1673,0.1701,0.1702,0.1739,0.1744,0.1749,0.177,0.1773,0.178,0.1781,0.1782,0.1782,0,0,0,0,0,0,0,0.1569,0.1574,0.162,0.1627,0.1631,0.1642,0.1648,0.1664,0.1699,0.1675,0.1679,0.1686,0.1741,0.1747,0.1751,0.1774,0.178,0.1781,0.1782,0.1783,0.1888,0.1889,0,0,0,0,0,0,0.1564,0.1571,0.1618,0.1621,0.1605,0.1643,0.1649,0.1657,0.1699,0.1707,0.1686,0.1688,0.1744,0.1749,0.1754,0.1834,0.1782,0.1783,0.1785,0.1886,0.1888,0.189,0,0,0,0,0,0,0.1563,0.1568,0.1616,0.1599,0.1606,0.1643,0.1651,0.1658,0.17,0.1707,0.1715,0.1725,0.1745,0.1751,0.1801,0.1834,0.1784,0.1786,0.1884,0.1887,0.1889,0.194,0,0,0,0,0,0,0.1561,0.1567,0.1588,0.1598,0.1607,0.1646,0.1651,0.1658,0.1701,0.1707,0.1743,0.1748,0.1746,0.1799,0.1803,0.1836,0.1788,0.1882,0.1886,0.1888,0.1936,0.1944,0.195,0,0,0,0,0,0.1558,0.1572,0.1588,0.1595,0.1629,0.1647,0.1652,0.168,0.1703,0.1722,0.1755,0.1749,0.1821,0.1802,0.1807,0.1841,0.1881,0.1885,0.1888,0.1933,0.1942,0.195,0,0,0,0,0,0,0.1556,0.1578,0.1597,0.1619,0.1643,0.1655,0.168,0.1701,0.1742,0.1761,0.1769,0.1777,0.1832,0.1832,0.181,0.188,0.185,0.1855,0.1883,0.1891,0.1898,0.1905,0.1789,0,0,0,0,0,0.1565,0.1588,0.1606,0.1631,0.1643,0.1671,0.1691,0.1712,0.174,0.1761,0.1787,0.1818,0.1844,0.1866,0.1885,0.1925,0.1932,0.1951,0.1958,0.1963,0.1974,0.2015,0.2026,0.1902,0.1902,0.1902,0,0,0.1572,0.159,0.1604,0.1634,0.1656,0.1679,0.1686,0.1725,0.1758,0.1761,0.1826,0.1846,0.1862,0.1906,0.193,0.1914,0.2004,0.1968,0.1973,0.198,0.202,0.2032,0.2042,0.1904,0.1904,0.1904,0,0,0.1584,0.1613,0.1632,0.1653,0.1694,0.171,0.173,0.1765,0.1798,0.1853,0.1867,0.1911,0.1954,0.1969,0.1981,0.204,0.204,0.2051,0.2094,0.2133,0.2144,0.2153,0.2179,0.219,0.2054,0.2054,0.2054,0,0.1596,0.1619,0.1642,0.1664,0.1686,0.1728,0.1752,0.1789,0.1842,0.1872,0.1885,0.1966,0.1982,0.2031,0.2056,0.2056,0.2077,0.2058,0.2142,0.2152,0.216,0.2184,0.2196,0.2057,0.2057,0.2056,0.2056,0,0.1608,0.1641,0.1655,0.1698,0.1725,0.1756,0.1798,0.1846,0.1896,0.193,0.2007,0.2035,0.2083,0.2095,0.2098,0.2167,0.2162,0.2146,0.2118,0.2176,0.2197,0.2208,0.2061,0.206,0.2059,0.2059,0,0,0.1593,0.1652,0.1662,0.1687,0.1747,0.1765,0.183,0.1887,0.1941,0.2004,0.207,0.2125,0.2157,0.2173,0.2186,0.2223,0.2302,0.2221,0.2222,0.2243,0.2394,0.2236,0.2232,0.2308,0.231,0.2312,0.2384,0,0.1601,0.1643,0.1674,0.1724,0.1746,0.18,0.1855,0.1919,0.1985,0.2061,0.2113,0.2186,0.2182,0.2225,0.2262,0.23,0.2335,0.2284,0.2339,0.234,0.2189,0.2241,0.2319,0.2392,0.2395,0.2396,0.2398,0,0.1594,0.1627,0.1672,0.1739,0.1755,0.18,0.189,0.1946,0.2053,0.211,0.2189,0.2241,0.2326,0.2311,0.2403,0.2377,0.2397,0.2412,0.2415,0.2257,0.2202,0.2324,0.2418,0.2416,0.2415,0.2413,0.2412,0,0.1553,0.1622,0.166,0.1681,0.1765,0.1808,0.1866,0.1967,0.2026,0.2157,0.2223,0.2316,0.2392,0.2433,0.2481,0.2461,0.2567,0.2534,0.2403,0.2392,0.2491,0.248,0.2592,0.2591,0.2591,0.2591,0.2591,0,0.1524,0.1558,0.1653,0.1669,0.1732,0.1799,0.1883,0.1955,0.207,0.2138,0.2256,0.2322,0.2434,0.2503,0.2516,0.2495,0.2598,0.242,0.2403,0.251,0.2501,0.2499,0.2487,0.2594,0.2593,0.2593,0.2592,0,0.1459,0.1521,0.1571,0.1672,0.1712,0.1758,0.1884,0.1937,0.2067,0.2161,0.2215,0.2366,0.2454,0.2528,0.2608,0.253,0.2529,0.2493,0.2615,0.2602,0.2319,0.231,0.2347,0.2342,0.2338,0.2335,0.2332,0,0.1421,0.1445,0.1562,0.1594,0.1646,0.1733,0.1789,0.1922,0.1976,0.2158,0.2187,0.234,0.2419,0.2408,0.2493,0.2502,0.2468,0.2446,0.2365,0.2316,0.2296,0.2293,0.2289,0.2325,0.2324,0.2323,0.2322,0,0.1351,0.1412,0.1454,0.1529,0.1593,0.1648,0.174,0.1768,0.1912,0.2056,0.2113,0.2161,0.2255,0.231,0.2343,0.2339,0.2446,0.2401,0.2409,0.2332,0.2289,0.2273,0.2274,0.2307,0.2309,0.2311,0.2312,0,0.1308,0.132,0.1391,0.1442,0.1516,0.1531,0.1593,0.1653,0.1724,0.1918,0.1934,0.2087,0.2231,0.2226,0.2251,0.2244,0.2199,0.2107,0.2129,0.2146,0.2044,0.1958,0.1866,0,0,0,0,0,0.1254,0.1255,0.1294,0.1333,0.1399,0.144,0.1542,0.1607,0.1755,0.1742,0.1828,0.19,0.1951,0.2037,0.1988,0.2157,0.2206,0.2089,0.2109,0.2227,0.2244,0.2142,0,0,0,0,0,0,0.1216,0.1249,0.1256,0.1233,0.124,0.1291,0.1348,0.1443,0.1446,0.1609,0.1657,0.1778,0.1869,0.1964,0.1953,0.1975,0.1943,0.2186,0.2181,0.2217,0.2233,0.2246,0.2147,0,0,0,0,0]},{"header":{"parameterUnit":"m.s-1","parameterCategory":2,"la1":30.2991,"la2":30.254,"lo1":-89.0895,"lo2":-89.0444,"dy":0.0017,"dx":0.0017,"nx":28,"ny":28,"refTime":"2025-11-07T09:00:00:Z","depth":"4","parameterNumber":3,"parameterNumberName":"V-component_of_CURRENTS"},"data":[0,0,0,0,0,0,0,0,0,0,0,0,0,0,0,0,0,0,0,0,0,0,0,0,0,0,0,0,0,0,0,0,0,0,0,0,0,0,0,0,0,0,0,0,0,0,0,0,0,0,0,0,0,0,0,0,0,0,0.0217,0.0217,0,0.0208,0.0208,0.0208,0.0202,0.0202,0.0202,0.0202,0.0189,0.0188,0.0188,0,0,0,0,0,0,0,0,0,0,0,0,0,0.02,0.0201,0.0217,0.0217,0.0217,0.0208,0.0208,0.0208,0.0202,0.0202,0.0202,0.0202,0.0189,0.0189,0.0188,0,0,0,0,0,0,0,0,0,0,0,0,0,0.0202,0.0201,0.0217,0.0213,0.0212,0.0208,0.0208,0.0208,0.0202,0.0202,0.0202,0.0202,0.0189,0.0189,0.0188,0.0188,0,0,0.0187,0.0187,0,0,0,0,0,0,0,0,0.0202,0.0202,0.0213,0.0213,0.0212,0.0206,0.0198,0.0201,0.0202,0.0206,0.0202,0.0202,0.0194,0.0193,0.0192,0.0187,0.0187,0.0187,0.0187,0.0186,0.0186,0,0,0,0,0,0,0,0.0202,0.0202,0.0214,0.0213,0.0213,0.0201,0.0202,0.0198,0.0201,0.0206,0.0205,0.0204,0.0194,0.0193,0.0192,0.0187,0.0187,0.0186,0.0186,0.0186,0.0185,0.0185,0,0,0,0,0,0,0.0204,0.0203,0.0214,0.0214,0.0206,0.0202,0.0202,0.0208,0.0201,0.02,0.0204,0.0204,0.0193,0.0192,0.0191,0.0206,0.0186,0.0186,0.0186,0.0185,0.0185,0.0185,0,0,0,0,0,0,0.0204,0.0205,0.0215,0.0207,0.0207,0.0202,0.0209,0.0208,0.0212,0.02,0.0198,0.0209,0.0193,0.0192,0.0193,0.0204,0.0186,0.0185,0.0184,0.0185,0.0185,0.0224,0,0,0,0,0,0,0.0203,0.0205,0.0214,0.0208,0.0208,0.022,0.0209,0.0208,0.0211,0.021,0.0204,0.0202,0.0193,0.0193,0.0192,0.0203,0.0185,0.0184,0.0185,0.0185,0.0223,0.0226,0.0229,0,0,0,0,0,0.0203,0.0217,0.0214,0.0216,0.0219,0.0221,0.022,0.0216,0.0211,0.0218,0.021,0.0203,0.0195,0.0193,0.0192,0.0203,0.0184,0.0184,0.0185,0.0221,0.0225,0.0229,0,0,0,0,0,0,0.0214,0.0217,0.0215,0.0229,0.0227,0.022,0.0225,0.022,0.022,0.0219,0.0207,0.0205,0.0209,0.0199,0.0198,0.0203,0.0188,0.0188,0.0216,0.0219,0.0222,0.0232,0.0185,0,0,0,0,0,0.022,0.0231,0.0228,0.0239,0.024,0.0233,0.0234,0.023,0.0226,0.0226,0.022,0.0213,0.0209,0.0209,0.0203,0.0208,0.0184,0.0213,0.0216,0.0219,0.0224,0.0194,0.0194,0.0187,0.0187,0.0187,0,0,0.0225,0.0229,0.0234,0.0242,0.024,0.025,0.0234,0.0238,0.0249,0.0225,0.0238,0.0223,0.0212,0.0217,0.0218,0.0212,0.0207,0.0219,0.0222,0.0226,0.0194,0.0195,0.0196,0.0187,0.0187,0.0187,0,0,0.0242,0.0246,0.0261,0.0265,0.0267,0.0264,0.0267,0.0264,0.0266,0.0272,0.0256,0.0249,0.0247,0.024,0.0236,0.0251,0.0222,0.0249,0.0275,0.0245,0.0245,0.0245,0.0211,0.0207,0.0252,0.0252,0.0252,0,0.0249,0.0271,0.0264,0.0281,0.0292,0.0273,0.0294,0.0292,0.0289,0.0294,0.0282,0.0271,0.0259,0.0264,0.0268,0.0259,0.0233,0.0264,0.0249,0.0249,0.0248,0.0212,0.0208,0.0254,0.0254,0.0254,0.0253,0,0.0277,0.0297,0.0306,0.0324,0.0333,0.0346,0.0345,0.035,0.0345,0.034,0.0341,0.0318,0.0313,0.0304,0.0293,0.0287,0.0267,0.0255,0.0241,0.0251,0.0213,0.0208,0.0257,0.0256,0.0256,0.0255,0,0,0.029,0.0321,0.0326,0.0348,0.036,0.0373,0.0389,0.0402,0.0417,0.0398,0.0414,0.0393,0.0372,0.0366,0.0343,0.0316,0.0286,0.0288,0.0285,0.0256,0.0213,0.0194,0.0187,0.0269,0.0268,0.0268,0.0186,0,0.0317,0.0363,0.037,0.0414,0.0439,0.0437,0.046,0.0466,0.0462,0.0468,0.0434,0.0437,0.0399,0.0397,0.0363,0.031,0.0275,0.0309,0.0206,0.0203,0.0187,0.0181,0.0266,0.0182,0.0181,0.018,0.018,0,0.0346,0.0376,0.0427,0.0473,0.0485,0.0507,0.0542,0.056,0.0556,0.0554,0.0535,0.0505,0.047,0.0434,0.0338,0.036,0.0292,0.024,0.0236,0.0203,0.0175,0.017,0.017,0.0171,0.0171,0.0172,0.0173,0,0.0368,0.0417,0.0464,0.048,0.0523,0.055,0.0574,0.0587,0.0617,0.0608,0.0618,0.056,0.0543,0.0449,0.034,0.0338,0.0223,0.0208,0.0122,0.012,0.0144,0.0145,0.0134,0.0134,0.0134,0.0134,0.0134,0,0.0396,0.0435,0.048,0.0508,0.0569,0.0588,0.065,0.0659,0.0686,0.0723,0.0667,0.0669,0.0546,0.0465,0.0354,0.0223,0.0231,0.0125,0.0099,0.0162,0.0165,0.014,0.0142,0.0131,0.0132,0.0132,0.0133,0,0.0412,0.0441,0.0501,0.0559,0.0583,0.063,0.0712,0.0754,0.0768,0.0812,0.0814,0.0753,0.0645,0.0508,0.0352,0.0253,0.0122,0.0072,0.0147,0.0127,0.0033,0.0038,-0.003,-0.0032,-0.0033,-0.0034,-0.0035,0,0.0425,0.0456,0.054,0.0585,0.0616,0.0691,0.0747,0.0792,0.084,0.086,0.088,0.0796,0.0734,0.0501,0.0348,0.0128,0.0095,0.0019,0.0025,0.0035,0.0016,0.0023,0.0029,-0.0036,-0.0037,-0.0037,-0.0037,0,0.0447,0.0478,0.0527,0.062,0.069,0.0775,0.0854,0.0892,0.0943,0.0958,0.0932,0.0814,0.069,0.0503,0.0331,0.0174,0.0064,0.0007,0.0008,0.0013,0.0027,0.0011,0.0019,-0.0041,-0.0041,-0.004,-0.004,0,0.0463,0.05,0.0568,0.0649,0.074,0.0826,0.0872,0.0926,0.0971,0.0986,0.0972,0.0839,0.0766,0.0526,0.0369,0.021,0.0166,0.0106,0.0101,0.0103,0.0163,0.0202,0.0165,0,0,0,0,0,0.0474,0.0516,0.0593,0.0684,0.0777,0.0833,0.0928,0.0968,0.1011,0.1,0.099,0.0873,0.0642,0.0544,0.0382,0.0335,0.013,0.0137,0.0056,-0.0063,-0.0058,-0.0013,0,0,0,0,0,0,0.0481,0.0548,0.0586,0.0696,0.0764,0.0871,0.0934,0.0968,0.0963,0.0977,0.086,0.0815,0.0593,0.0732,0.0373,0.0326,0.0248,0.0037,0.0033,-0.0065,-0.0061,-0.0057,-0.001,0,0,0,0,0]}]]